Regional Weather Roundup
Issued by NWS

Home | Current Version | Previous Version | Text Only | Print | Product List | Glossary Off
Versions: 1 2 3 4 5 6 7 8 9 10 11 12 13 14 15 16 17 18 19 20 21 22 23 24 25 26 27 28

000
ASUS45 KBOI 171710
RWRID

IDAHO REGIONAL WEATHER ROUNDUP
NATIONAL WEATHER SERVICE BOISE ID
1000 AM MST TUE JAN 17 2017

NOTE: "FAIR" INDICATES FEW OR NO CLOUDS BELOW 12000 FEET
WITH NO SIGNIFICANT WEATHER AND/OR OBSTRUCTIONS TO VISIBILITY

IDZ012-014-171800-
SOUTHWEST IDAHO


CITY           SKY/WX    TMP DP  RH WIND       PRES   REMARKS
BOISE          SUNNY      5   1  83 NW6       30.35S FOG     WCI  -6
CALDWELL       LGT SNOW   1  -3  83 CALM      30.42F FOG
MOUNTAIN HOME  SUNNY      4   3  99 SE5       30.33F WCI  -6
$$

IDZ016-017-171800-
SOUTHCENTRAL IDAHO


CITY           SKY/WX    TMP DP  RH WIND       PRES   REMARKS
BURLEY         MIX PCPN  10   3  73 NE12      30.28  WCI  -5
JEROME         SUNNY      7   2  80 NE20      30.28S WCI -13
TWIN FALLS     SUNNY     12   7  80 E6        30.28R WCI   3
$$

IDZ019>023-171800-
SOUTHEAST IDAHO


CITY           SKY/WX    TMP DP  RH WIND       PRES   REMARKS
IDAHO FALLS    CLOUDY    -1  -6  79 N7        30.31S WCI -14
POCATELLO      CLOUDY     3  -2  79 N5        30.32S WCI  -6
REXBURG        SUNNY      2  -4  76 NE3       30.30R
$$

IDZ006-010-011-018-031-032-171800-
CENTRAL IDAHO MOUNTAINS


CITY           SKY/WX    TMP DP  RH WIND       PRES   REMARKS
MCCALL         FOG       -1  -4  87 CALM      30.15S VSB 1/4
HAILEY         MOSUNNY    9   3  78 NW5       30.25R WCI   0
STANLEY          N/A     -5  -8  87 CALM      30.21F
SALMON         CLOUDY   -15 -17  91 CALM      30.40R
CHALLIS        MOSUNNY  -12 -17  78 S5        30.30R HAZE    WCI -24
$$

IDZ002-004-006-007-026-171800-
NORTHERN IDAHO


CITY           SKY/WX    TMP DP  RH WIND       PRES   REMARKS
LEWISTON       CLOUDY    26  16  65 S7        30.11R WCI  18
LOWELL           N/A     17  12  80 NW8       30.21F WCI   7
COEUR D`ALENE  CLOUDY    20  18  92 CALM      30.06R
MULLAN PASS    CLOUDY    27  17  66 VRB6      29.94R WCI  20
$$




USA.gov is the U.S. government's official web portal to all federal, state and local government web resources and services.